User: anonymous   Login
Location: Ç?ral? Körfezi
(36.3984°N, 30.4829°E)
Time: 19:53:34
(UTC+00:00)
Language:

Cosmos 2333 Rocket - Orbit

View from above orbital plane
View from above orbital plane
View from above satellite
View from above satellite

Ground track
Ground track

The orbit data is extracted from the following two-line orbital elements,

1 24298U 96051B   25312.70641448 -.00000033  00000-0  89909-5 0  9990
2 24298  70.7598  71.3173 0017866 304.5038  55.4394 14.12392409504561
Epoch (UTC): 08 November 2025 16:57:14
Eccentricity: 0.0017866
inclination: 70.7598°
perigee height: 838 km
apogee height: 864 km
right ascension of ascending node: 71.3173°
argument of perigee: 304.5038°
revolutions per day: 14.12392409
mean anomaly at epoch: 55.4394°
orbit number at epoch: 50456

The dashed part of the orbit path shows where the satellite is in the earth's shadow,  

DLR